Flag for Canada Weather past 2 weeks in Montreal, Quebec, Canada

Now
5 °F

Clear.


Feels Like: -4 °F
Forecast: 5 / 27 °F
Wind: 5 mph from Southeast

Location: Montreal - Pierre Elliot Trudeau International Aiport

Current Time: Jan 29, 2015 at 7:24:29 AM

Latest Report: Jan 29, 2015 at 6:00 AM


Visibility: 15 mi

Pressure: 30.31 "Hg

Humidity: 66%

Dew point: -4 °F

Location of MontrealLocation

Historic Weather in Montreal — Graph

°F

Montreal temperature yesterday

Maximum temperature yesterday: 16 °F (at 2:00 PM)
Minimum temperature yesterday: 5 °F (at 8:00 AM)
Average temperature yesterday: 11 °F

Past Weeks' High & Low Weather Summary

 TemperatureHumidityPressure
High36 °F (Jan 18, 1:00 PM)100% (Jan 19, 4:00 AM)30.56 "Hg (Jan 19, 4:00 AM)
Low-9 °F (Jan 17, 5:00 AM)40% (Jan 27, 3:00 PM)29.30 "Hg (Jan 25, 1:00 AM)
Average12 °F68%30.01 "Hg
* Reported Jan 14 6:00 AM — Jan 29 6:00 AM, Montreal, Weather by CustomWeather, © 2014

Note: Actual official high and low records may vary slightly from our data, if they occured in-between our weather recording intervals... More about our weather records

Advertising

Montreal weather history for previous 24 hours

 ConditionsComfort  
Time TempWeatherWind HumidityBarometerVisibility
6:00 AM
Jan 29
5 °FClear.5 mph66%30.31 "Hg15 mi
5:00 AM3 °FClear.2 mph60%30.31 "Hg15 mi
4:00 AM7 °FClear.5 mph56%30.32 "Hg15 mi
3:00 AM5 °FClear.6 mph55%30.32 "Hg15 mi
2:00 AM9 °FClear.6 mph51%30.32 "Hg15 mi
1:00 AM9 °FClear.7 mph51%30.31 "Hg15 mi
12:00 AM7 °FClear.9 mph56%30.31 "Hg15 mi
11:00 PM
Jan 28
9 °FClear.8 mph51%30.32 "Hg15 mi
10:00 PM10 °FClear.9 mph47%30.30 "Hg15 mi
9:00 PM10 °FClear.8 mph47%30.29 "Hg15 mi
8:00 PM12 °FClear.12 mph48%30.28 "Hg15 mi
7:00 PM12 °FClear.9 mph48%30.27 "Hg15 mi
6:00 PM12 °FPassing clouds.9 mph52%30.26 "Hg15 mi
5:00 PM14 °FPassing clouds.9 mph48%30.24 "Hg30 mi
4:00 PM16 °FPassing clouds.10 mph45%30.22 "Hg30 mi
3:00 PM16 °FPassing clouds.12 mph45%30.20 "Hg30 mi
2:00 PM16 °FPassing clouds.12 mph45%30.19 "Hg30 mi
1:00 PM14 °FPassing clouds.12 mph48%30.19 "Hg30 mi
12:00 PM14 °FPassing clouds.9 mph48%30.19 "Hg30 mi
11:00 AM10 °FPassing clouds.8 mph52%30.20 "Hg30 mi
10:00 AM10 °FPassing clouds.6 mph47%30.18 "Hg30 mi
9:00 AM7 °FScattered clouds.3 mph56%30.18 "Hg30 mi
8:00 AM5 °FBroken clouds.7 mph60%30.15 "Hg30 mi
7:00 AM7 °FPassing clouds.6 mph56%30.12 "Hg15 mi
Weather by CustomWeather, © 2014

See weather overviewHow to use our weather pages